Weather in Satu Mare

Romania     47°47′11″N   22°53′20″E
temp.,
°C
wind,
m/s
gust,
m/s
humid.,
%
clouds,
%
prec.,
mm/h
press.,
hPa
HPBL,
m
12 may, wed
wed1200:00+15ese34850 0.0 101049
03:00+15ese512730 0.0 1010248
06:00+14ese513640 0.0 1009323
09:00+17se512655 0.0 1009448
12:00+21se57544 0.0 1007707
15:00+23se45524 0.0 10061050
18:00+23sse35612 0.0 10041034
21:00+15sw3795100 1.4 1004180
13 may, thu
thu1300:00+14s2293100 1.0 100428
03:00+14sse3390100 1.1 100451
06:00+14ssw4894100 0.4 1003463
09:00+13s51095100 1.9 1004722
12:00+13ssw4995100 4.1 1005601
15:00+15sw3583100 6.3 1004782
18:00+16sw4682100 2.1 1004538
21:00+13s3489100 4.3 100457
14 may, fri
fri1400:00+12s3695100 1.3 1005185
03:00+12ssw369599 2.0 1006217
06:00+11sw4896100 0.1 1007416
09:00+12sw4785100 0.1 1008731
12:00+14sw6771100 0.1 10091331
15:00+14sw4877100 0.3 1010798
18:00+16wsw467287 0.1 1010916
21:00+12ssw3383100 0.4 101023
15 may, sat
sat1500:00+10ssw2292100 0.0 101218
03:00+9se229293 0.0 101312
06:00+8ese339312 0.0 101245
09:00+14ese3478100 0.0 1012244
12:00+18ese346033 0.0 10111095
15:00+20e3455100 0.0 10091637
18:00+20e2258100 0.0 10081451
21:00+15n337899 0.0 100731
16 may, sun
sun1600:00+13nne2285100 0.0 100724
03:00+12e2286100 0.1 100617
06:00+12se2286100 0.6 100736
09:00+12nne2693100 2.5 1007227
12:00+14nne1186100 0.1 1008205
15:00+19sw2270100 1.6 10071005
18:00+17nw3487100 2.9 1007268
21:00+14wnw249696 5.9 100989